DW1520 Weather Reports


time (UTC)temp
F
wind
direction
speed
knots
gust
knots
rain 1hr
in
rain 24hr
in
rain mn
in
humidity
%
barometer
mb
20260506044506 42 298 0.0 0.9 0.00 0.00 0.00 57 1011.4
20260506044007 42 298 0.0 0.0 0.00 0.00 0.00 57 1011.4
20260506043506 42 298 0.0 1.7 0.00 0.00 0.00 56 1011.4
20260506043006 42 298 0.0 2.6 0.00 0.00 0.00 56 1011.4
20260506042506 42 298 0.9 2.6 0.00 0.00 0.00 55 1011.3
20260506041506 42 292 0.9 1.7 0.00 0.00 0.00 54 1011.3
20260506040506 43 287 0.9 2.6 0.00 0.00 0.00 54 1011.2
20260506040006 43 308 0.9 2.6 0.00 0.00 0.00 53 1011.2
20260506035506 43 315 0.9 2.6 0.00 0.00 0.00 53 1011.1
20260506035006 43 315 0.0 1.7 0.00 0.00 0.00 53 1011.1
20260506034006 44 294 0.9 5.2 0.00 0.00 0.00 52 1011.1
20260506033506 44 302 0.9 4.3 0.00 0.00 0.00 52 1011.0
20260506033007 44 300 0.9 4.3 0.00 0.00 0.00 52 1010.9
20260506032507 44 290 0.0 2.6 0.00 0.00 0.00 53 1010.8
20260506032006 44 290 0.9 2.6 0.00 0.00 0.00 52 1010.9
20260506031506 44 290 0.9 1.7 0.00 0.00 0.00 52 1010.9
20260506031007 44 290 0.9 1.7 0.00 0.00 0.00 52 1010.9
20260506030506 44 290 0.9 2.6 0.00 0.00 0.00 52 1010.7
20260506025007 45 290 0.0 0.0 0.00 0.00 0.00 51 1010.7
20260506024506 45 290 0.0 0.0 0.00 0.00 0.00 51 1010.6
20260506023006 46 290 0.0 0.0 0.00 0.00 0.00 50 1010.5
20260506022506 46 290 0.0 1.7 0.00 0.00 0.00 50 1010.3
20260506021506 46 290 1.7 2.6 0.00 0.00 0.00 47 1010.2
20260506021006 46 321 0.9 2.6 0.00 0.00 0.00 48 1010.3
20260506020506 46 321 0.0 2.6 0.00 0.00 0.00 48 1010.1
20260506015006 47 321 0.0 1.7 0.00 0.00 0.00 47 1010.0
20260506014506 47 321 0.0 4.3 0.00 0.00 0.00 47 1009.9
20260506014006 47 314 1.7 4.3 0.00 0.00 0.00 45 1009.7
20260506013506 47 284 0.9 2.6 0.00 0.00 0.00 46 1009.7
20260506013006 47 296 1.7 6.1 0.00 0.00 0.00 45 1009.6
20260506012506 47 305 1.7 4.3 0.00 0.00 0.00 45 1009.6
20260506012007 47 300 1.7 6.1 0.00 0.00 0.00 45 1009.6
20260506011506 48 310 1.7 6.1 0.00 0.00 0.00 44 1009.6
20260506011006 48 294 0.9 2.6 0.00 0.00 0.00 44 1009.6
20260506010506 48 293 2.6 7.8 0.00 0.00 0.00 45 1009.5
20260506005506 48 286 1.7 7.0 0.00 0.00 0.00 44 1009.4
20260506005006 48 301 2.6 4.3 0.00 0.00 0.00 44 1009.3
20260506004506 48 306 1.7 2.6 0.00 0.00 0.00 44 1009.2
20260506004006 48 302 1.7 4.3 0.00 0.00 0.00 44 1009.2
20260506003008 48 309 0.0 1.7 0.00 0.00 0.00 45 1009.1
20260506002006 48 309 0.9 2.6 0.00 0.00 0.00 43 1009.0
20260506001506 49 295 0.9 2.6 0.00 0.00 0.00 43 1009.0
20260506001007 49 308 1.7 4.3 0.00 0.00 0.00 44 1009.0
20260506000506 49 300 1.7 7.0 0.00 0.00 0.00 42 1008.9
20260506000006 49 272 0.9 6.1 0.00 0.00 0.00 43 1009.0
20260505233006 50 304 0.9 2.6 0.00 0.00 0.00 43 1008.9
20260505232506 50 313 2.6 7.8 0.00 0.00 0.00 42 1008.9
20260505232006 50 277 2.6 8.7 0.00 0.00 0.00 44 1008.9
20260505231506 49 237 1.7 4.3 0.00 0.00 0.00 42 1008.8
20260505231006 50 254 2.6 5.2 0.00 0.00 0.00 43 1008.9
20260505230506 50 296 1.7 6.1 0.00 0.00 0.00 44 1008.8
20260505230007 50 286 2.6 7.0 0.00 0.00 0.00 43 1008.8
20260505225006 50 315 1.7 6.1 0.00 0.00 0.00 43 1008.9
20260505224006 50 271 2.6 7.8 0.00 0.00 0.00 42 1009.0
20260505223506 50 262 2.6 6.1 0.00 0.00 0.00 42 1009.0
20260505223006 50 289 1.7 6.1 0.00 0.00 0.00 43 1008.8
20260505222506 50 279 2.6 7.0 0.00 0.00 0.00 42 1008.9
20260505222006 50 237 1.7 6.1 0.00 0.00 0.00 42 1008.8
20260505221506 50 283 2.6 7.8 0.00 0.00 0.00 43 1008.9
20260505221006 50 294 1.7 7.0 0.00 0.00 0.00 44 1008.8
20260505220506 50 283 3.5 7.8 0.00 0.00 0.00 41 1008.8
20260505215006 50 301 1.7 8.7 0.00 0.00 0.00 42 1008.8
20260505214506 50 303 2.6 8.7 0.00 0.00 0.00 41 1008.8
20260505214006 51 296 2.6 8.7 0.00 0.00 0.00 41 1008.9
20260505213506 51 245 1.7 5.2 0.00 0.00 0.00 40 1008.9
20260505213006 52 259 2.6 10.4 0.00 0.00 0.00 39 1008.9
20260505212506 52 205 2.6 10.4 0.00 0.00 0.00 38 1008.9
20260505211506 52 218 2.6 7.0 0.00 0.00 0.00 40 1008.9
20260505210506 51 299 4.3 10.4 0.00 0.00 0.00 41 1008.9
20260505210006 51 289 3.5 7.8 0.00 0.00 0.00 42 1008.9
20260505205506 51 299 1.7 7.8 0.00 0.00 0.00 42 1009.0
20260505205006 51 290 2.6 7.0 0.00 0.00 0.00 45 1009.1
20260505204505 51 321 1.7 4.3 0.00 0.00 0.00 42 1009.1
20260505204007 51 288 2.6 8.7 0.00 0.00 0.00 43 1009.0
20260505203506 51 290 3.5 10.4 0.00 0.00 0.00 41 1009.1
20260505203006 52 184 2.6 6.1 0.00 0.00 0.00 41 1009.1
20260505202506 51 273 1.7 5.2 0.00 0.00 0.00 42 1009.2
20260505201006 51 238 1.7 7.8 0.00 0.00 0.00 43 1009.3
20260505200506 51 272 1.7 7.8 0.00 0.00 0.00 42 1009.2
20260505200005 51 307 1.7 7.0 0.00 0.00 0.00 43 1009.3
20260505195505 51 280 2.6 7.8 0.00 0.00 0.00 43 1009.2
20260505195006 50 291 2.6 7.0 0.00 0.00 0.00 42 1009.3
20260505194506 50 302 2.6 11.3 0.00 0.00 0.00 40 1009.3
20260505194006 50 239 3.5 11.3 0.00 0.00 0.00 40 1009.3
20260505193007 50 212 1.7 6.1 0.00 0.00 0.00 38 1009.3
20260505192506 51 243 2.6 8.7 0.00 0.00 0.00 38 1009.5
20260505192006 51 250 1.7 7.0 0.00 0.00 0.00 41 1009.5
20260505191505 51 245 2.6 7.0 0.00 0.00 0.00 39 1009.4
20260505191006 50 318 1.7 6.1 0.00 0.00 0.00 43 1009.4
20260505190006 50 230 1.7 8.7 0.00 0.00 0.00 41 1009.5
20260505185506 50 291 2.6 7.0 0.00 0.00 0.00 40 1009.5
20260505185006 50 221 2.6 4.3 0.00 0.00 0.00 41 1009.5
20260505184506 50 237 1.7 7.0 0.00 0.00 0.00 43 1009.4
20260505184006 49 302 4.3 8.7 0.00 0.00 0.00 43 1009.5
20260505183506 49 226 3.5 11.3 0.00 0.00 0.00 41 1009.5
20260505183007 49 270 2.6 7.8 0.00 0.00 0.00 43 1009.3
20260505182506 49 262 1.7 7.0 0.00 0.00 0.00 43 1009.4
20260505182006 49 305 3.5 7.0 0.00 0.00 0.00 43 1009.3
20260505181006 49 285 2.6 7.8 0.00 0.00 0.00 41 1009.2
20260505180506 50 299 3.5 10.4 0.00 0.00 0.00 41 1009.2
20260505180006 50 253 1.7 5.2 0.00 0.00 0.00 40 1009.2
20260505175506 50 291 1.7 5.2 0.00 0.00 0.00 40 1009.1
20260505174506 49 241 2.6 7.8 0.00 0.00 0.00 40 1009.1
20260505174006 50 299 2.6 10.4 0.00 0.00 0.00 40 1009.0
20260505173506 50 233 2.6 7.8 0.00 0.00 0.00 41 1009.1
20260505173006 49 229 2.6 10.4 0.00 0.00 0.00 39 1009.0
20260505172506 49 260 1.7 7.0 0.00 0.00 0.00 39 1009.1
20260505171506 49 254 1.7 6.1 0.00 0.00 0.00 40 1009.1
20260505170506 50 264 0.9 7.0 0.00 0.00 0.00 40 1009.1
20260505170006 50 258 2.6 7.0 0.00 0.00 0.00 42 1009.1
20260505165506 49 290 2.6 7.0 0.00 0.00 0.00 45 1009.1
20260505165006 48 263 1.7 8.7 0.00 0.00 0.00 41 1009.2
20260505164506 48 257 1.7 7.8 0.00 0.00 0.00 41 1009.1
20260505164006 49 288 2.6 8.7 0.00 0.00 0.00 42 1009.2
20260505163506 49 305 4.3 10.4 0.00 0.00 0.00 42 1009.1
20260505163008 49 276 1.7 7.0 0.00 0.00 0.00 45 1009.2
20260505161506 49 250 1.7 5.2 0.00 0.00 0.00 41 1009.4
20260505161006 49 275 2.6 10.4 0.00 0.00 0.00 42 1009.4
20260505160506 49 305 4.3 7.8 0.00 0.00 0.00 44 1009.4
20260505152006 47 257 1.7 2.6 0.00 0.00 0.00 47 1009.0
20260505151506 47 306 0.9 6.1 0.00 0.00 0.00 47 1009.0
20260505151006 48 302 1.7 4.3 0.00 0.00 0.00 46 1009.0
20260505150506 47 288 0.9 6.1 0.00 0.00 0.00 51 1008.9
20260505140505 45 303 1.7 4.3 0.00 0.00 0.00 55 1008.8
20260505125006 41 304 0.9 4.3 0.00 0.00 0.00 67 1008.2
20260505124506 40 304 0.9 4.3 0.00 0.00 0.00 68 1008.1
20260505124006 40 293 0.9 2.6 0.00 0.00 0.00 68 1008.1
20260505123505 40 274 0.0 2.6 0.00 0.00 0.00 70 1008.0
20260505123006 39 311 0.9 2.6 0.00 0.00 0.00 70 1008.0
20260505122505 39 307 1.7 2.6 0.00 0.00 0.00 70 1007.9
20260505122006 38 307 1.7 2.6 0.00 0.00 0.00 70 1007.8
20260505121506 38 307 0.9 2.6 0.00 0.00 0.00 71 1007.7
20260505121006 38 272 0.9 2.6 0.00 0.00 0.00 72 1007.7
20260505120506 37 272 0.9 2.6 0.00 0.00 0.00 73 1007.6
20260505120006 37 272 0.0 2.6 0.00 0.00 0.00 74 1007.5
20260505115506 37 272 0.0 2.6 0.00 0.00 0.00 73 1007.4
20260505114006 37 272 0.0 1.7 0.00 0.00 0.00 73 1007.1
20260505113506 37 272 0.0 1.7 0.00 0.00 0.00 73 1007.0
20260505113006 37 272 0.9 1.7 0.00 0.00 0.00 72 1006.8
20260505112506 36 272 0.0 0.0 0.00 0.00 0.00 72 1006.7
20260505112006 37 272 0.0 0.9 0.00 0.00 0.00 72 1006.6
20260505111505 37 272 0.0 0.0 0.00 0.00 0.00 72 1006.5
20260505111006 37 272 0.0 0.0 0.00 0.00 0.00 71 1006.3
20260505110506 37 272 0.0 0.0 0.00 0.00 0.00 71 1006.3
20260505102006 37 272 0.0 1.7 0.00 0.00 0.00 70 1005.8
20260505101506 37 272 0.0 0.0 0.00 0.00 0.00 70 1005.8
20260505101006 38 272 0.0 0.0 0.00 0.00 0.00 70 1005.8
20260505095505 38 272 0.0 0.0 0.00 0.00 0.00 69 1005.8
20260505095006 38 272 0.0 0.9 0.00 0.00 0.00 68 1005.8
20260505094005 38 272 0.0 0.0 0.00 0.00 0.00 68 1005.8
20260505093506 38 272 0.0 0.9 0.00 0.00 0.00 68 1005.7
20260505092506 38 272 0.0 0.9 0.00 0.00 0.00 69 1005.7
20260505092006 38 272 0.0 0.0 0.00 0.00 0.00 69 1005.7
20260505091006 38 272 0.0 0.0 0.00 0.00 0.00 70 1005.6
20260505084006 39 272 0.0 0.0 0.00 0.00 0.00 64 1005.3
20260505083006 40 272 0.0 0.0 0.00 0.00 0.00 64 1005.1
20260505082505 40 272 0.0 2.6 0.00 0.00 0.00 64 1005.0
20260505082006 40 272 0.0 1.7 0.00 0.00 0.00 64 1004.8
20260505081506 40 272 0.0 1.7 0.00 0.00 0.00 63 1004.8
20260505081006 40 272 0.0 0.9 0.00 0.00 0.00 63 1004.8
20260505080506 40 272 0.0 0.9 0.00 0.00 0.00 63 1004.7
20260505080006 40 272 0.0 0.9 0.00 0.00 0.00 62 1004.7
20260505075506 40 272 0.0 0.9 0.00 0.00 0.00 62 1004.7
20260505075006 41 272 0.0 2.6 0.00 0.00 0.00 62 1004.7
20260505074505 41 272 0.0 0.9 0.00 0.00 0.00 62 1004.7
20260505074006 41 272 0.0 0.9 0.00 0.00 0.00 62 1004.6
20260505073506 41 272 0.0 0.9 0.00 0.00 0.00 63 1004.6
20260505073006 41 272 0.0 1.7 0.00 0.00 0.00 62 1004.7
20260505072506 42 272 0.0 1.7 0.00 0.00 0.00 60 1004.6
20260505072005 42 272 0.0 0.0 0.00 0.00 0.00 60 1004.6
20260505071506 42 272 0.0 1.7 0.00 0.00 0.00 60 1004.7
20260505071006 42 272 0.0 0.9 0.00 0.00 0.00 59 1004.6
20260505070506 42 272 0.0 0.9 0.00 0.00 0.00 59 1004.6
20260505065505 42 272 0.0 0.0 0.00 0.00 0.00 59 1004.5
20260505065005 42 272 0.0 1.7 0.00 0.00 0.00 59 1004.5
20260505064506 42 272 0.0 2.6 0.00 0.00 0.00 59 1004.6
20260505064006 42 284 0.0 1.7 0.00 0.00 0.00 59 1004.5
20260505063005 42 305 0.0 0.9 0.00 0.00 0.00 59 1004.5
20260505062505 42 305 0.0 0.9 0.00 0.00 0.00 58 1004.5
20260505062006 42 305 0.0 0.9 0.00 0.00 0.00 58 1004.5
20260505061005 43 305 0.0 0.0 0.00 0.00 0.00 57 1004.4
20260505060506 43 305 0.9 2.6 0.00 0.00 0.00 57 1004.4
20260505060006 43 305 0.9 2.6 0.00 0.00 0.00 56 1004.4
20260505055505 43 305 0.0 2.6 0.00 0.00 0.00 57 1004.4
20260505055005 43 305 0.0 2.6 0.00 0.00 0.00 56 1004.4
20260505054505 43 305 0.0 2.6 0.00 0.00 0.00 56 1004.4
20260505054005 43 305 0.9 2.6 0.00 0.00 0.00 56 1004.4
20260505053506 43 305 0.0 2.6 0.00 0.00 0.00 56 1004.3
20260505053006 43 256 0.0 0.9 0.00 0.00 0.00 55 1004.3
20260505052506 43 256 0.0 0.0 0.00 0.00 0.00 55 1004.3
20260505052006 43 256 0.0 1.7 0.00 0.00 0.00 54 1004.3
20260505051506 44 232 0.0 1.7 0.00 0.00 0.00 55 1004.3
20260505050506 44 306 0.0 0.9 0.00 0.00 0.00 54 1004.2